User: anonymous   Login
Location: Byszew
(52.1813°N, 19.2693°E)
Time: 14:40:59
(UTC+00:00)
Language:

FALCON 9 DEB - Orbit

View from above orbital plane
View from above orbital plane
View from above satellite
View from above satellite

Ground track
Ground track

The orbit data is extracted from the following two-line orbital elements,

1 46087U 20055BN  21127.16766400  .00011816  00000-0  12311-3 0  9998
2 46087  53.0079  37.9439 0013290  91.5007 268.7529 15.64984531 47234
Epoch (UTC): 07 May 2021 04:01:26
Eccentricity: 0.0013290
inclination: 53.0079°
perigee height: 364 km
apogee height: 382 km
right ascension of ascending node: 37.9439°
argument of perigee: 91.5007°
revolutions per day: 15.64984531
mean anomaly at epoch: 268.7529°
orbit number at epoch: 4723

The dashed part of the orbit path shows where the satellite is in the earth's shadow,  

DLR